London-Corbin, KY

8:28 PM EDT on October 23, 2019 (GMT -0400)
London-Corbin / McKee

Weather History for KLOZ - May, 2019

Change the Weather History Date:

Sunday, May 12, 2019

  Actual Average Record
Temperature  
Mean Temperature 60 °F 64 °F  
Max Temperature 66 °F 75 °F 89 °F (2000)
Min Temperature 54 °F 52 °F 33 °F (1989)
Degree Days  
Heating Degree Days 5 4  
Month to date heating degree days 14 52  
Since 1 July heating degree days 3994 4153  
Cooling Degree Days 0 2  
Month to date cooling degree days 31 19  
Year to date cooling degree days 43 45  
Growing Degree Days 12 (Base 50)    
Moisture  
Dew Point 61 °F    
Average Humidity 87    
Maximum Humidity 100    
Minimum Humidity 73    
Precipitation  
Precipitation 0.68 in 0.18 in 0.93 in (2017)
Sea Level Pressure  
Sea Level Pressure 29.74 in    
Wind  
Wind Speed 8 mph (West)    
Max Wind Speed 17 mph    
Max Gust Speed 22 mph    
Visibility 8 miles    
Events Rain    
T = Trace of Precipitation, MM = Missing Value Source: NWS Daily Summary

Daily Weather History Graph

Daily Weather History Graph

Search for Another Location

Airport or City:

Astronomy

May. 12, 2019 Rise Set
Actual Time 6:30 AM EDT 8:35 PM EDT
Civil Twilight 6:02 AM EDT 9:03 PM EDT
Nautical Twilight 5:26 AM EDT 9:39 PM EDT
Astronomical Twilight 4:49 AM EDT 10:17 PM EDT
Moon 1:48 PM EDT (5/12) 2:57 AM EDT (5/12)
Length of Visible Light 15h 01m
Length of Day
14h 04m
First Quarter, 57% of the Moon is Illuminated
May 12
First Quarter
May 18
Full
May 26
Last Quarter
Jun 3
New
Jun 10
First Quarter

Hourly Weather History & Observations

Time (EDT) Temp. Dew Point Humidity Pressure Visibility Wind Dir Wind Speed Gust Speed Precip Events Conditions
12:53 AM 66.0 °F 66.0 °F 100% 29.71 in 5.0 mi Variable 4.6 mph - 0.05 in Rain Rain
1:01 AM 66.0 °F 66.0 °F 100% 29.74 in 2.5 mi Variable 3.5 mph - 0.04 in Rain Rain
1:04 AM 66.0 °F 66.0 °F 100% 29.74 in 1.5 mi North - - 0.17 in Rain Heavy Rain
1:14 AM 66.0 °F 66.0 °F 100% 29.73 in 2.0 mi WSW 9.2 mph - 0.25 in Rain Light Rain
1:16 AM 66.0 °F 66.0 °F 100% 29.73 in 5.0 mi West 6.9 mph - 0.25 in Rain Light Rain
1:53 AM 64.9 °F 64.9 °F 100% 29.70 in 4.0 mi West 5.8 mph - 0.27 in Rain Rain
2:04 AM 64.9 °F 64.9 °F 100% 29.72 in 2.0 mi West 5.8 mph - 0.07 in Rain Rain
2:14 AM 64.0 °F 64.0 °F 100% 29.72 in 3.0 mi West 5.8 mph - 0.10 in Rain Light Rain
2:27 AM 64.0 °F 64.0 °F 100% 29.72 in 1.8 mi West 5.8 mph - 0.20 in Rain Rain
2:37 AM 64.0 °F 64.0 °F 100% 29.72 in 2.0 mi WSW 6.9 mph - 0.27 in Rain Rain
2:46 AM 64.0 °F 64.0 °F 100% 29.72 in 3.0 mi West 5.8 mph - 0.30 in Rain Rain
2:53 AM 64.0 °F 64.0 °F 100% 29.70 in 5.0 mi West 5.8 mph - 0.31 in Rain Light Rain
3:46 AM 64.0 °F 64.0 °F 100% 29.72 in 10.0 mi West 5.8 mph - 0.02 in Rain Light Rain
3:53 AM 64.0 °F 64.0 °F 100% 29.69 in 10.0 mi West 6.9 mph - 0.02 in Rain Light Rain
4:00 AM 64.0 °F 64.0 °F 100% 29.71 in 10.0 mi WSW 5.8 mph - 0.00 in Rain Light Rain
5:29 AM 64.0 °F 64.0 °F 100% 29.72 in 10.0 mi WSW 9.2 mph - N/A Rain Light Rain
5:53 AM 64.0 °F 63.0 °F 96% 29.70 in 10.0 mi WSW 8.1 mph - N/A Rain Light Rain
6:00 AM 64.0 °F 63.0 °F 96% 29.73 in 10.0 mi WSW 6.9 mph - 0.00 in   Overcast
6:07 AM 64.0 °F 63.0 °F 96% 29.73 in 10.0 mi WSW 9.2 mph - 0.00 in Rain Light Rain
6:34 AM 64.0 °F 63.0 °F 96% 29.74 in 10.0 mi WSW 8.1 mph - 0.00 in   Overcast
6:53 AM 63.0 °F 63.0 °F 100% 29.72 in 10.0 mi SW 3.5 mph - 0.00 in   Overcast
7:17 AM 63.0 °F 63.0 °F 100% 29.74 in 8.0 mi WSW 5.8 mph - 0.01 in Rain Light Rain
7:32 AM 63.0 °F 63.0 °F 100% 29.75 in 10.0 mi SW 3.5 mph - 0.01 in   Overcast
7:41 AM 63.0 °F 63.0 °F 100% 29.75 in 10.0 mi WSW 5.8 mph - 0.01 in   Overcast
7:53 AM 63.0 °F 62.1 °F 97% 29.73 in 10.0 mi West 8.1 mph - 0.01 in   Overcast
8:21 AM 63.0 °F 62.1 °F 97% 29.75 in 10.0 mi West 5.8 mph - N/A   Overcast
8:28 AM 63.0 °F 63.0 °F 100% 29.75 in 10.0 mi West 8.1 mph - N/A   Overcast
8:53 AM 62.1 °F 62.1 °F 100% 29.74 in 10.0 mi West 9.2 mph - N/A   Overcast
9:53 AM 62.1 °F 62.1 °F 100% 29.75 in 8.0 mi West 8.1 mph - 0.00 in Rain Light Rain
10:53 AM 61.0 °F 61.0 °F 100% 29.75 in 7.0 mi West 8.1 mph - 0.00 in   Overcast
11:35 AM 62.1 °F 61.0 °F 96% 29.77 in 10.0 mi WSW 11.5 mph - N/A   Overcast
11:50 AM 62.6 °F 60.8 °F 94% 29.78 in 10.0 mi SW 11.5 mph - N/A   Overcast
11:53 AM 64.0 °F 61.0 °F 90% 29.75 in 10.0 mi SW 11.5 mph - N/A   Overcast
12:53 PM 63.0 °F 59.0 °F 87% 29.76 in 10.0 mi West 10.4 mph - N/A   Overcast
1:53 PM 63.0 °F 59.0 °F 87% 29.75 in 10.0 mi West 12.7 mph - N/A   Overcast
2:08 PM 62.1 °F 59.0 °F 90% 29.78 in 10.0 mi West 13.8 mph - N/A   Overcast
2:53 PM 64.9 °F 57.9 °F 78% 29.75 in 10.0 mi WSW 13.8 mph 21.9 mph N/A   Overcast
3:01 PM 64.9 °F 57.9 °F 78% 29.77 in 10.0 mi WSW 12.7 mph 19.6 mph N/A   Overcast
3:53 PM 64.9 °F 59.0 °F 81% 29.73 in 10.0 mi West 9.2 mph - N/A   Mostly Cloudy
4:53 PM 66.0 °F 57.9 °F 75% 29.74 in 10.0 mi West 9.2 mph - N/A   Overcast
5:49 PM 64.4 °F 57.2 °F 77% 29.74 in 10.0 mi WNW 8.1 mph - N/A   Overcast
5:53 PM 64.0 °F 57.9 °F 80% 29.71 in 10.0 mi West 12.7 mph - N/A   Overcast
6:24 PM 64.0 °F 57.9 °F 80% 29.75 in 10.0 mi West 10.4 mph - N/A   Overcast
6:36 PM 63.0 °F 57.9 °F 84% 29.75 in 10.0 mi West 8.1 mph - N/A   Overcast
6:53 PM 62.1 °F 57.0 °F 84% 29.73 in 10.0 mi WNW 8.1 mph - N/A   Overcast
7:27 PM 60.1 °F 57.0 °F 90% 29.76 in 10.0 mi West 6.9 mph - 0.01 in Rain Light Rain
7:53 PM 60.1 °F 57.0 °F 90% 29.73 in 10.0 mi West 5.8 mph - 0.01 in   Overcast
8:53 PM 59.0 °F 55.9 °F 90% 29.75 in 10.0 mi WNW 6.9 mph - N/A   Overcast
9:46 PM 57.9 °F 55.9 °F 93% 29.78 in 6.0 mi West 6.9 mph - 0.00 in Rain Light Rain
9:53 PM 57.9 °F 55.9 °F 93% 29.76 in 8.0 mi WNW 6.9 mph - 0.00 in Rain Light Rain
10:53 PM 57.9 °F 55.9 °F 93% 29.78 in 10.0 mi West 10.4 mph 18.4 mph 0.00 in Rain Light Rain
11:03 PM 57.0 °F 55.9 °F 96% 29.80 in 8.0 mi WNW 9.2 mph - 0.00 in Rain Light Rain
11:16 PM 57.0 °F 55.9 °F 96% 29.81 in 6.0 mi West 9.2 mph - 0.00 in Rain Light Rain
11:53 PM 55.0 °F 55.0 °F 100% 29.79 in 4.0 mi WNW 10.4 mph 21.9 mph 0.01 in Rain Light Rain